FW9836 Weather Reports


time (UTC)temp
C
wind
direction
speed
KPH
gust
KPH
rain 1hr
cm
rain 24hr
cm
rain mn
cm
humidity
%
barometer
mb
20260507155236 15 189 6.4 11.3 0.00 2.11 0.69 57 1006.6
20260507154238 14 180 1.6 4.8 0.00 2.11 0.69 58 1006.8
20260507153335 14 337 3.2 6.4 0.00 2.11 0.69 60 1006.9
20260507152337 14 186 4.8 8.0 0.00 2.11 0.69 60 1007.0
20260507151435 14 71 1.6 4.8 0.00 2.11 0.69 61 1007.0
20260507150438 13 351 3.2 9.7 0.00 2.11 0.69 61 1006.8
20260507145536 13 8 4.8 6.4 0.00 2.11 0.69 62 1007.1
20260507144538 13 332 8.0 9.7 0.00 2.11 0.69 64 1007.2
20260507143536 12 315 1.6 3.2 0.00 2.11 0.69 67 1007.2
20260507141539 12 304 3.2 6.4 0.00 2.11 0.69 67 1007.5
20260507140538 12 327 1.6 3.2 0.00 2.11 0.69 69 1007.6
20260507135637 12 237 0.0 1.6 0.00 2.11 0.69 71 1007.6
20260507134635 11 252 1.6 8.0 0.00 2.11 0.69 73 1007.7
20260507133652 11 270 3.2 6.4 0.00 2.11 0.69 75 1008.0
20260507132738 10 262 0.0 4.8 0.00 2.11 0.69 75 1008.1
20260507131738 10 317 8.0 12.9 0.00 2.11 0.69 76 1007.8
20260507125739 10 339 1.6 3.2 0.00 2.11 0.69 80 1008.1
20260507123839 9 276 4.8 11.3 0.00 2.11 0.69 86 1007.6
20260507122936 8 67 0.0 0.0 0.00 2.11 0.69 86 1007.3
20260507121937 8 315 3.2 6.4 0.00 2.11 0.69 87 1007.2
20260507121836 8 302 1.6 6.4 0.00 2.11 0.69 87 1007.4
20260507120836 8 347 0.0 1.6 0.00 2.11 0.69 88 1007.4
20260507115837 8 315 0.0 1.6 0.00 2.11 0.69 87 1008.3
20260507114839 8 270 1.6 3.2 0.00 2.11 0.69 88 1007.7
20260507113836 7 199 1.6 6.4 0.00 2.11 0.69 89 1008.3
20260507111838 7 270 0.0 0.0 0.00 2.11 0.69 89 1008.6
20260507110937 7 32 0.0 0.0 0.00 2.11 0.69 91 1008.0
20260507104935 7 292 0.0 3.2 0.00 2.11 0.69 91 1008.1
20260507102938 7 270 1.6 4.8 0.00 2.11 0.69 91 1007.7
20260507101036 7 312 4.8 6.4 0.00 2.11 0.69 93 1007.0
20260507094136 7 304 3.2 6.4 0.00 2.11 0.69 93 1007.0
20260507093138 7 303 1.6 4.8 0.00 2.11 0.69 94 1007.2
20260507092235 8 189 0.0 1.6 0.00 2.11 0.69 94 1007.5
20260507091238 8 315 0.0 1.6 0.00 2.11 0.69 94 1007.4
20260507085237 8 260 3.2 8.0 0.00 2.11 0.69 95 1007.1
20260507083335 8 266 4.8 14.5 0.00 2.11 0.69 95 1006.5
20260507082337 8 284 3.2 9.7 0.03 2.11 0.69 94 1006.6
20260507080337 8 319 3.2 9.7 0.03 2.11 0.69 94 1006.5
20260507075338 8 277 4.8 8.0 0.03 2.11 0.69 95 1006.3
20260507074338 9 306 3.2 9.7 0.03 2.11 0.69 95 1006.4
20260507073337 9 290 3.2 6.4 0.05 2.11 0.69 94 1006.3
20260507073235 9 267 1.6 4.8 0.05 2.11 0.69 95 1006.3
20260507071235 9 275 4.8 6.4 0.03 2.08 0.66 95 1006.0
20260507070237 9 315 1.6 3.2 0.28 2.08 0.66 95 1006.0
20260507065237 9 281 3.2 4.8 0.56 2.08 0.66 95 1006.0
20260507064237 9 270 3.2 4.8 0.64 2.08 0.66 94 1005.9
20260507063237 9 270 0.0 1.6 0.61 2.06 0.64 95 1005.7
20260507062236 9 270 0.0 1.6 0.61 2.06 0.64 95 1005.8
20260507061238 9 270 1.6 4.8 0.61 2.06 0.61 94 1005.9
20260507060239 9 278 8.0 14.5 0.36 1.80 0.36 95 1006.8
20260507055336 9 241 3.2 11.3 0.08 1.52 0.10 95 1006.4
20260507054337 8 233 3.2 6.4 0.00 1.45 0.03 94 1005.8
20260507052338 9 258 3.2 8.0 0.00 1.45 0.03 94 1006.0
20260507051339 9 224 6.4 11.3 0.03 1.45 0.03 95 1006.1
20260507050437 9 233 4.8 12.9 0.03 1.45 0.03 95 1005.9
20260507045438 9 227 3.2 8.0 0.03 1.45 0.03 95 1005.9
20260507045336 9 237 3.2 8.0 0.03 1.45 0.03 95 1005.9
20260507044338 9 231 11.3 24.1 0.03 1.45 0.03 95 1006.0
20260507043338 9 257 4.8 8.0 0.03 1.45 0.03 95 1006.0
20260507041435 9 243 8.0 16.1 0.03 1.42 0.00 95 1006.4
20260507040436 9 243 8.0 20.9 0.05 1.42 0.00 94 1006.5
20260507035517 9 222 8.0 17.7 0.08 1.42 1.42 93 1006.7
20260507034614 10 228 9.7 20.9 0.08 1.42 1.42 93 1006.8
20260507033616 10 216 4.8 9.7 0.13 1.42 1.42 94 1006.7
20260507032616 10 230 8.0 30.6 0.20 1.42 1.42 94 1006.7
20260507031616 10 221 8.0 19.3 0.20 1.40 1.40 94 1006.8
20260507030615 10 207 16.1 29.0 0.28 1.37 1.37 94 1007.0
20260507025616 10 225 11.3 25.7 0.33 1.35 1.35 94 1007.2
20260507024615 11 224 12.9 20.9 0.38 1.35 1.35 94 1007.3
20260507023616 11 225 16.1 22.5 0.41 1.30 1.30 94 1007.4
20260507022615 11 211 11.3 19.3 0.41 1.22 1.22 94 1007.6
20260507020614 11 219 14.5 37.0 0.36 1.09 1.09 92 1007.6
20260507015615 11 216 14.5 24.1 0.36 1.02 0.99 93 1008.0
20260507014615 11 208 11.3 16.1 0.36 0.97 0.94 93 1008.5
20260507013617 11 222 11.3 22.5 0.36 0.89 0.86 93 1008.6
20260507012615 11 231 9.7 22.5 0.36 0.81 0.81 93 1008.8
20260507012515 11 225 14.5 27.4 0.38 0.81 0.81 93 1008.9
20260507011515 11 210 8.0 16.1 0.43 0.76 0.76 93 1009.0
20260507005516 11 220 8.0 16.1 0.48 0.66 0.66 93 1009.1
20260507004516 11 215 12.9 22.5 0.41 0.58 0.58 93 1009.5
20260507003614 11 206 14.5 24.1 0.38 0.53 0.53 93 1009.5
20260507002616 11 230 12.9 25.7 0.33 0.46 0.43 92 1009.7
20260507000718 11 217 14.5 25.7 0.15 0.28 0.28 92 1009.8
20260506235716 11 222 11.3 24.1 0.10 0.20 0.20 92 1010.2
20260506234717 11 233 9.7 19.3 0.08 0.18 0.18 91 1010.1
20260506233715 11 243 6.4 16.1 0.08 0.15 0.15 91 1010.0
20260506232715 11 225 8.0 17.7 0.05 0.13 0.13 92 1010.0
20260506224731 10 213 9.7 17.7 0.10 0.10 0.10 92 1010.7
20260506223715 10 221 9.7 16.1 0.08 0.08 0.08 92 1010.4
20260506222714 10 218 12.9 22.5 0.08 0.08 0.05 91 1010.5
20260506221716 10 239 8.0 20.9 0.05 0.05 0.05 91 1010.9
20260506221631 10 225 12.9 30.6 0.05 0.05 0.05 91 1010.9
20260506220616 10 228 12.9 25.7 0.03 0.03 0.03 91 1011.3
20260506215617 10 221 9.7 19.3 0.03 0.03 0.03 89 1011.4
20260506214615 10 204 8.0 12.9 0.00 0.00 0.00 90 1011.3
20260506212615 10 235 8.0 12.9 0.00 0.00 0.00 88 1011.1
20260506211615 10 204 8.0 20.9 0.00 0.00 0.00 88 1011.4
20260506210714 10 227 11.3 17.7 0.00 0.00 0.00 88 1011.7
20260506205716 10 242 3.2 9.7 0.00 0.00 0.00 86 1011.6
20260506204714 11 220 8.0 22.5 0.00 0.00 0.00 86 1011.5
20260506203716 11 244 3.2 11.3 0.00 0.00 0.00 85 1011.7
20260506202714 11 223 6.4 16.1 0.00 0.00 0.00 85 1010.8
20260506201715 11 227 12.9 24.1 0.00 0.00 0.00 85 1011.0
20260506195814 12 218 16.1 27.4 0.00 0.00 0.00 84 1011.1
20260506193815 12 222 12.9 29.0 0.00 0.00 0.00 83 1011.5
20260506192815 12 213 17.7 32.2 0.00 0.00 0.00 84 1011.6
20260506191815 12 237 6.4 14.5 0.00 0.00 0.00 84 1011.7
20260506190815 12 232 8.0 17.7 0.00 0.00 0.00 84 1011.9
20260506185817 11 211 8.0 20.9 0.00 0.00 0.00 85 1011.8
20260506184817 11 220 8.0 22.5 0.00 0.00 0.00 85 1011.9
20260506183814 11 225 11.3 24.1 0.00 0.00 0.00 84 1012.0
20260506182815 11 214 11.3 27.4 0.00 0.00 0.00 85 1012.1
20260506181915 11 234 11.3 20.9 0.00 0.00 0.00 85 1012.2
20260506180915 11 212 9.7 19.3 0.00 0.00 0.00 85 1012.3
20260506175917 11 262 3.2 9.7 0.00 0.00 0.00 86 1012.3
20260506173914 11 219 8.0 16.1 0.00 0.00 0.00 85 1012.4
20260506172915 11 232 8.0 17.7 0.00 0.00 0.00 85 1012.6
20260506171917 11 239 4.8 22.5 0.00 0.00 0.00 84 1012.8
20260506171015 11 227 9.7 29.0 0.00 0.00 0.00 84 1012.8
20260506170014 12 225 11.3 22.5 0.00 0.00 0.00 83 1012.8
20260506165015 12 242 9.7 22.5 0.00 0.00 0.00 83 1013.0
20260506164015 12 232 11.3 19.3 0.00 0.00 0.00 84 1013.1
20260506163114 12 232 4.8 14.5 0.00 0.00 0.00 84 1013.2
20260506162114 12 243 8.0 17.7 0.00 0.00 0.00 84 1013.4
20260506161115 12 218 6.4 16.1 0.00 0.00 0.00 84 1013.5
20260506160213 12 255 6.4 16.1 0.00 0.00 0.00 83 1013.3